sim
Sign-in with your pilot id or email,
or register
Callsign
Passwort

Schedule Details

Flight Number: RYR3094 (1)
Departure: Paris Beauvais-Tille Airport (LFOB) at 10:35
Arrival: Thessaloniki International Airport (LGTS) at 13:25
Route: Ryanair Passenger Schedule. Enter filed route here before submitting Pirep.

Weather Information
Getting current METAR information for LFOB 211830Z AUTO 15002KT CAVOK 21/10 Q1026 NOSIG
Getting current METAR information for LGTS 211820Z 10005KT CAVOK 27/13 Q1016 NOSIG

Schedule Frequency

Route Map